Madison, MN

1:54 AM CDT on March 25, 2017 (GMT -0500)
Madison-Lac Qui Parle County

Weather History for KDXX - December, 2012

Change the Weather History Date:

Sunday, December 9, 2012

  Actual Average (KAQP) Record (KAQP)
Temperature  
Mean Temperature 16 °F -  
Max Temperature 32 °F 29 °F 57 °F (2006)
Min Temperature 0 °F 13 °F -9 °F (2005)
Degree Days  
Heating Degree Days 49    
Moisture  
Dew Point 16 °F    
Average Humidity 87    
Maximum Humidity 100    
Minimum Humidity 72    
Precipitation  
Precipitation 0.06 in - - ()
Sea Level Pressure  
Sea Level Pressure 29.95 in    
Wind  
Wind Speed 19 mph (North)    
Max Wind Speed 40 mph    
Max Gust Speed 51 mph    
Visibility 2 miles    
Events Snow    
Averages and records for this station are not official NWS values.
T = Trace of Precipitation, MM = Missing Value Source: NWS Daily Summary

Daily Weather History Graph

Daily Weather History Graph

Search for Another Location

Airport or City:

Trip Planner

Search our weather history database for the weather conditions in past years. The results will help you decide how hot, cold, wet, or windy it might be!

Date:

Astronomy

Dec. 09, 2012 Rise Set
Actual Time 7:51 AM CST 4:43 PM CST
Civil Twilight 7:17 AM CST 5:16 PM CST
Nautical Twilight 6:40 AM CST 5:53 PM CST
Astronomical Twilight 6:05 AM CST 6:29 PM CST
Moon 3:17 AM CST (12/9) 1:57 PM CST (12/9)
Length of Visible Light 9h 58m
Length of Day
8h 51m
Waning Crescent, 18% of the Moon is Illuminated
Dec 9
Waning Crescent
Dec 13
New
Dec 19
First Quarter
Dec 28
Full
Jan 4
Last Quarter

Hourly Weather History & Observations

Time (CST) Temp. Windchill Dew Point Humidity Pressure Visibility Wind Dir Wind Speed Gust Speed Precip Events Conditions
12:14 AM 30.2 °F 19.3 °F 28.4 °F 93% 29.86 in 2.0 mi ESE 15.0 mph - N/A Snow Light Snow
12:33 AM 30.2 °F 19.3 °F 28.4 °F 93% 29.86 in 2.0 mi ESE 15.0 mph - N/A Snow Light Snow
12:54 AM 30.2 °F 20.8 °F 28.4 °F 93% 29.86 in 2.0 mi ESE 11.5 mph - N/A Snow Light Snow
1:14 AM 30.2 °F 20.2 °F 28.4 °F 93% 29.85 in 3.0 mi East 12.7 mph - 0.01 in Snow Light Snow
1:33 AM 30.2 °F 19.8 °F 28.4 °F 93% 29.85 in 3.0 mi ESE 13.8 mph - 0.01 in Snow Light Snow
1:54 AM 30.2 °F 20.8 °F 28.4 °F 93% 29.85 in 1.8 mi ESE 11.5 mph - 0.01 in Snow Light Snow
2:14 AM 30.2 °F 20.8 °F 28.4 °F 93% 29.85 in 2.5 mi ESE 11.5 mph - N/A Snow Light Snow
2:33 AM 30.2 °F 20.2 °F 28.4 °F 93% 29.85 in 2.5 mi ESE 12.7 mph - N/A Snow Light Snow
2:54 AM 30.2 °F 20.8 °F 28.4 °F 93% 29.84 in 1.8 mi ESE 11.5 mph - N/A Snow Light Snow
3:14 AM 30.2 °F 21.3 °F 30.2 °F 100% 29.84 in 2.0 mi ESE 10.4 mph - 0.01 in Snow Light Snow
3:33 AM 32.0 °F 22.1 °F 30.2 °F 93% 29.83 in 2.5 mi ESE 13.8 mph - 0.01 in Snow Light Snow
3:54 AM 32.0 °F 22.5 °F 30.2 °F 93% 29.82 in 3.0 mi East 12.7 mph - 0.01 in Snow Light Snow
4:14 AM 32.0 °F 23.0 °F 30.2 °F 93% 29.83 in 2.5 mi ESE 11.5 mph - N/A Snow Light Snow
4:33 AM 32.0 °F 23.6 °F 30.2 °F 93% 29.83 in 3.0 mi East 10.4 mph - N/A Snow Light Snow
4:54 AM 32.0 °F 24.2 °F 30.2 °F 93% 29.82 in 1.8 mi East 9.2 mph - N/A Snow Light Snow
5:14 AM 32.0 °F 24.2 °F 30.2 °F 93% 29.82 in 1.5 mi ENE 9.2 mph - 0.01 in Snow Light Snow
5:33 AM 32.0 °F 23.6 °F 30.2 °F 93% 29.82 in 1.2 mi ENE 10.4 mph - 0.01 in Snow Light Snow
5:54 AM 32.0 °F 24.2 °F 30.2 °F 93% 29.82 in 1.5 mi ENE 9.2 mph - 0.02 in Snow Light Snow
6:14 AM 32.0 °F 24.2 °F 30.2 °F 93% 29.82 in 1.2 mi ENE 9.2 mph - N/A Snow Light Snow
6:34 AM 32.0 °F 24.2 °F 30.2 °F 93% 29.83 in 1.5 mi NE 9.2 mph - 0.01 in Snow Light Snow
6:54 AM 30.2 °F 20.8 °F 30.2 °F 100% 29.83 in 1.8 mi NE 11.5 mph - 0.01 in Snow Light Snow
7:13 AM 30.2 °F 20.2 °F 28.4 °F 93% 29.83 in 1.5 mi NE 12.7 mph - N/A Snow Light Snow
7:34 AM 30.2 °F 19.8 °F 28.4 °F 93% 29.84 in 1.0 mi NE 13.8 mph - 0.01 in Snow Light Snow
7:54 AM 30.2 °F 18.9 °F 28.4 °F 93% 29.85 in 0.8 mi NNE 16.1 mph - 0.01 in Snow Snow
8:13 AM 30.2 °F 18.5 °F 28.4 °F 93% 29.85 in 0.2 mi NNE 17.3 mph - N/A Snow Snow
8:34 AM 30.2 °F 18.1 °F 28.4 °F 93% 29.85 in 0.2 mi NNE 18.4 mph - N/A Snow Snow
8:54 AM 30.2 °F 18.1 °F 28.4 °F 93% 29.86 in 0.5 mi NNE 18.4 mph - N/A Snow Snow
9:13 AM 30.2 °F 18.5 °F 28.4 °F 93% 29.86 in 0.5 mi North 17.3 mph - N/A Snow Snow
9:33 AM 28.4 °F 14.4 °F 28.4 °F 100% 29.87 in 0.5 mi North 23.0 mph - N/A Snow Snow
9:54 AM 28.4 °F 14.4 °F 26.6 °F 93% 29.88 in - North 23.0 mph - N/A   Unknown
10:34 AM - - - N/A% 29.90 in - North 25.3 mph - N/A   Unknown
10:54 AM - - - N/A% - - North - - N/A   Unknown
11:13 AM 21.2 °F 2.7 °F 19.4 °F 93% 29.92 in - NNW 31.1 mph 38.0 mph N/A   Unknown
11:34 AM 19.4 °F 0.5 °F 15.8 °F 86% 29.93 in - NNW 29.9 mph 35.7 mph N/A   Unknown
11:53 AM 17.6 °F -3.1 °F 15.8 °F 93% 29.93 in - NNW 34.5 mph 40.3 mph N/A   Overcast
12:14 PM 17.6 °F -2.2 °F 12.2 °F 79% 29.94 in - NNW 31.1 mph 41.4 mph N/A   Overcast
12:34 PM 15.8 °F -6.8 °F 10.4 °F 79% 29.94 in - NNW 40.3 mph 43.7 mph N/A   Overcast
12:53 PM 12.2 °F -11.3 °F 10.4 °F 92% 29.95 in - NNW 38.0 mph 50.6 mph N/A   Overcast
1:14 PM 12.2 °F -10.2 °F 8.6 °F 85% 29.95 in - NNW 33.4 mph 43.7 mph N/A   Unknown
1:34 PM 12.2 °F -9.9 °F 8.6 °F 85% 29.96 in - NNW 32.2 mph 39.1 mph N/A   Unknown
1:53 PM 10.4 °F -13.0 °F 8.6 °F 92% 29.96 in - NNW 34.5 mph 40.3 mph N/A   Overcast
2:13 PM 10.4 °F -13.2 °F 6.8 °F 85% 29.97 in - NNW 35.7 mph 43.7 mph N/A   Overcast
2:34 PM - - - N/A% 29.98 in - NNW 36.8 mph 42.6 mph N/A   Unknown
2:54 PM - - - N/A% 29.99 in - NNW 31.1 mph 36.8 mph N/A   Unknown
3:14 PM 10.4 °F -12.7 °F 6.8 °F 85% 30.01 in - NNW 33.4 mph 41.4 mph N/A   Unknown
3:34 PM 10.4 °F -13.2 °F 6.8 °F 85% 30.02 in - NNW 35.7 mph 43.7 mph N/A   Unknown
3:54 PM 8.6 °F -15.7 °F 6.8 °F 92% 30.03 in - NNW 35.7 mph 43.7 mph N/A   Unknown
4:13 PM 8.6 °F -15.1 °F 6.8 °F 92% 30.04 in - NNW 33.4 mph 42.6 mph N/A   Unknown
4:34 PM 8.6 °F -15.7 °F 5.0 °F 85% 30.05 in - NNW 35.7 mph 43.7 mph N/A   Unknown
4:54 PM 8.6 °F -14.5 °F 5.0 °F 85% 30.06 in - NNW 31.1 mph 47.2 mph N/A   Unknown
5:14 PM - - - N/A% 30.07 in - NNW 34.5 mph 41.4 mph N/A   Unknown
5:34 PM 8.6 °F -15.4 °F 3.2 °F 79% 30.08 in - NNW 34.5 mph 40.3 mph N/A   Unknown
5:53 PM 8.6 °F -16.0 °F 3.2 °F 79% 30.08 in - NNW 36.8 mph 41.4 mph N/A   Unknown
6:13 PM 8.6 °F -14.5 °F 3.2 °F 79% 30.09 in - NNW 31.1 mph 42.6 mph N/A   Unknown
6:34 PM 8.6 °F -13.8 °F 3.2 °F 79% 30.09 in - NNW 28.8 mph 39.1 mph N/A   Unknown
6:54 PM 8.6 °F -14.8 °F 3.2 °F 79% 30.10 in - NNW 32.2 mph 40.3 mph N/A   Unknown
7:13 PM 6.8 °F -16.2 °F 3.2 °F 85% 30.11 in - NNW 28.8 mph 41.4 mph N/A   Unknown
7:34 PM 6.8 °F -14.3 °F 1.4 °F 79% 30.12 in - NNW 23.0 mph 39.1 mph N/A   Unknown
8:13 PM 6.8 °F -17.3 °F 1.4 °F 79% 30.13 in - NNW 32.2 mph 39.1 mph N/A   Unknown
8:34 PM 5.0 °F -19.0 °F -0.4 °F 78% - - NNW 29.9 mph 41.4 mph N/A   Unknown
8:53 PM 5.0 °F -20.1 °F -0.4 °F 78% 30.12 in - NNW 33.4 mph 39.1 mph N/A   Unknown
9:14 PM 5.0 °F -19.0 °F -0.4 °F 78% 30.12 in - NNW 29.9 mph 34.5 mph N/A   Unknown
9:34 PM 3.2 °F -21.1 °F -0.4 °F 85% 30.12 in - NNW 28.8 mph 36.8 mph N/A   Unknown
9:53 PM 3.2 °F -19.5 °F -2.2 °F 78% 30.12 in - NNW 24.2 mph 29.9 mph N/A   Unknown
10:14 PM 3.2 °F -18.6 °F -4.0 °F 72% 30.11 in - NNW 21.9 mph - N/A   Unknown
10:34 PM 1.4 °F -22.3 °F -5.8 °F 72% 30.11 in - NNW 25.3 mph 32.2 mph N/A   Unknown
10:53 PM 1.4 °F -19.4 °F -5.8 °F 72% 30.12 in - NW 18.4 mph - N/A   Unknown
11:14 PM 1.4 °F -17.6 °F -5.8 °F 72% 30.11 in - NW 15.0 mph - N/A   Unknown
11:34 PM -0.4 °F -20.5 °F -5.8 °F 78% 30.12 in - NW 16.1 mph 21.9 mph N/A   Unknown
11:53 PM 1.4 °F -18.8 °F -5.8 °F 72% 30.12 in - NW 17.3 mph - N/A   Unknown